Calgary Springbank,

6:22 AM MDT on July 23, 2017 (GMT -0600)
Calgary Springbank

Weather History for CYBW - September, 2011

Change the Weather History Date:

Tuesday, September 13, 2011

  Actual Average Record
Temperature  
Mean Temperature 42 °F -  
Max Temperature 50 °F 54 °F 78 °F (2013)
Min Temperature 35 °F 31 °F 26 °F (2007)
Degree Days  
Heating Degree Days 22    
Moisture  
Dew Point 39 °F    
Average Humidity 78    
Maximum Humidity 93    
Minimum Humidity 59    
Precipitation  
Precipitation 0.00 in - - ()
Sea Level Pressure  
Sea Level Pressure 30.40 in    
Wind  
Wind Speed 4 mph ()    
Max Wind Speed 10 mph    
Max Gust Speed -    
Visibility 12.1 miles    
Events Fog , Rain    
Averages and records for this station are not official NWS values.
T = Trace of Precipitation, MM = Missing Value Source: Averaged Metar Reports

Daily Weather History Graph

Daily Weather History Graph

Search for Another Location

Airport or City:

Trip Planner

Search our weather history database for the weather conditions in past years. The results will help you decide how hot, cold, wet, or windy it might be!

Date:

Astronomy

Sep. 13, 2011 Rise Set
Actual Time 7:09 AM MDT 7:56 PM MDT
Civil Twilight 6:35 AM MDT 8:29 PM MDT
Nautical Twilight 5:55 AM MDT 9:09 PM MDT
Astronomical Twilight 5:12 AM MDT 9:52 PM MDT
Moon 7:54 PM MDT (9/13) 8:44 AM MDT (9/13)
Length of Visible Light 13h 54m
Length of Day
12h 47m
Full, 98% of the Moon is Illuminated
Sep 13
Full
Sep 20
Last Quarter
Sep 27
New
Oct 3
First Quarter
Oct 11
Full

Hourly Weather History & Observations

Time (MDT) Temp. Windchill Dew Point Humidity Pressure Visibility Wind Dir Wind Speed Gust Speed Precip Events Conditions
5:00 AM 37.4 °F - 35.6 °F 93% 30.37 in 15.0 mi Calm Calm - N/A   Partly Cloudy
6:00 AM 37 °F - 34 °F 84% 30.37 in 12 mi NW 2.3 mph - -   Overcast
6:00 AM 37.4 °F - 33.8 °F 87% 30.37 in 12.0 mi WNW 2.3 mph - N/A   Overcast
7:00 AM 35.6 °F 32.8 °F 33.8 °F 93% 30.38 in 15.0 mi NNW 3.5 mph - N/A Fog Shallow Fog
8:00 AM 37.4 °F 34.9 °F 33.8 °F 87% 30.39 in 12.0 mi NNW 3.5 mph - N/A Fog Shallow Fog
9:00 AM 41.0 °F 39.0 °F 39.2 °F 93% 30.42 in 12.0 mi WNW 3.5 mph - N/A Fog Shallow Fog
10:00 AM 46.4 °F - 39.2 °F 76% 30.41 in 15.0 mi ESE 2.3 mph - N/A   Overcast
11:00 AM 48.2 °F - 41.0 °F 76% 30.42 in 15.0 mi SE 4.6 mph - N/A   Overcast
12:00 PM 49 °F - 39 °F 59% 30.41 in 15 mi South 6.9 mph - -   Overcast
1:00 PM 50.0 °F - 39.2 °F 66% 30.40 in 12.0 mi SE 6.9 mph - N/A   Overcast
2:00 PM 50.0 °F - 39.2 °F 66% 30.40 in 12.0 mi SE 8.1 mph - N/A   Overcast
3:00 PM 50.0 °F - 41.0 °F 71% 30.40 in 12.0 mi SSE 9.2 mph - N/A   Overcast
4:00 PM 50.0 °F - 41.0 °F 71% 30.40 in 12.0 mi SSE 9.2 mph - N/A   Overcast
5:00 PM 48.2 °F - 41.0 °F 76% 30.40 in 10.0 mi SSE 8.1 mph - N/A   Overcast
5:37 PM - - - N/A% - 10.0 mi SSE 8.1 mph - N/A   Overcast
5:48 PM - - - N/A% - 10.0 mi SSE 9.2 mph - N/A Rain Light Rain
6:00 PM 47 °F - 42 °F 78% 30.41 in 10 mi SSE 8.1 mph - - Rain Light Rain
6:00 PM 48.2 °F - 42.8 °F 82% 30.41 in 10.0 mi SSE 5.8 mph - N/A Rain Light Rain
6:25 PM - - - N/A% - 10.0 mi South 6.9 mph - N/A   Overcast
7:00 PM 48.2 °F - 39.2 °F 71% 30.41 in 10.0 mi SSE 8.1 mph - N/A   Overcast
8:00 PM 48.2 °F - 39.2 °F 71% 30.40 in 10.0 mi SE 9.2 mph - N/A   Overcast
10:00 PM 46.4 °F 41.5 °F 39.2 °F 76% 30.40 in 15.0 mi SE 10.4 mph - N/A   Overcast